UAL6555 KDEN-KLAS

Flight info

Callsign UAL6555
Flight time 1h 19m
Altitude 38000
Route CONNR7 WERNR ZAKRY CHESZ GGAPP CHOWW3
Aircraft A320/M-SDE3FGHIRWY/LB1

Departure

Time 2026-05-06 23:52
Airport Denver International Airport (KDEN)

Arrival

Time 2026-05-07 01:11
Airport Harry Reid International Airport (KLAS)
Time Latitude Longitude Altitude Speed Heading
2026-05-06 23:16 39.85441 -104.67957 5384 ft 0 kts 180°
2026-05-06 23:40 39.85442 -104.67957 5383 ft 2 kts 180°
2026-05-06 23:40 39.85467 -104.67959 5381 ft 4 kts 171°
2026-05-06 23:41 39.85493 -104.67963 5381 ft 2 kts 180°
2026-05-06 23:41 39.85516 -104.67962 5383 ft 4 kts 193°
2026-05-06 23:41 39.85538 -104.67949 5383 ft 4 kts 237°
2026-05-06 23:41 39.85543 -104.67932 5383 ft 0 kts 269°
2026-05-06 23:45 39.85541 -104.67951 5383 ft 4 kts 262°
2026-05-06 23:45 39.85533 -104.68011 5383 ft 9 kts 258°
2026-05-06 23:45 39.85530 -104.68110 5383 ft 13 kts 270°
2026-05-06 23:45 39.85514 -104.68201 5382 ft 3 kts 298°
2026-05-06 23:46 39.85514 -104.68206 5383 ft 0 kts 281°
2026-05-06 23:46 39.85510 -104.68216 5383 ft 3 kts 248°
2026-05-06 23:46 39.85486 -104.68216 5383 ft 6 kts 178°
2026-05-06 23:46 39.85427 -104.68204 5383 ft 11 kts 170°
2026-05-06 23:47 39.85333 -104.68199 5383 ft 16 kts 178°
2026-05-06 23:47 39.85231 -104.68240 5382 ft 16 kts 236°
2026-05-06 23:47 39.85207 -104.68344 5380 ft 12 kts 264°
2026-05-06 23:47 39.85206 -104.68475 5379 ft 15 kts 270°
2026-05-06 23:48 39.85203 -104.68609 5373 ft 19 kts 267°
2026-05-06 23:48 39.85201 -104.68790 5365 ft 20 kts 269°
2026-05-06 23:48 39.85198 -104.68921 5360 ft 12 kts 269°
2026-05-06 23:48 39.85197 -104.69017 5355 ft 9 kts 269°
2026-05-06 23:49 39.85195 -104.69111 5351 ft 15 kts 269°
2026-05-06 23:49 39.85198 -104.69260 5346 ft 16 kts 271°
2026-05-06 23:49 39.85201 -104.69444 5338 ft 24 kts 271°
2026-05-06 23:49 39.85203 -104.69567 5336 ft 14 kts 271°
2026-05-06 23:50 39.85262 -104.69657 5338 ft 14 kts 357°
2026-05-06 23:50 39.85276 -104.69657 5338 ft 0 kts
2026-05-06 23:51 39.85445 -104.69654 5337 ft 59 kts
2026-05-06 23:51 39.86092 -104.69649 5336 ft 124 kts
2026-05-06 23:51 39.87134 -104.69636 5339 ft 174 kts
2026-05-06 23:51 39.88415 -104.69651 5779 ft 184 kts 351°
2026-05-06 23:52 39.89506 -104.70412 6564 ft 182 kts 302°
2026-05-06 23:52 39.89809 -104.71958 7189 ft 181 kts 262°
2026-05-06 23:52 39.89401 -104.73556 7450 ft 200 kts 247°
2026-05-06 23:52 39.88837 -104.75327 7666 ft 223 kts 248°
2026-05-06 23:53 39.88231 -104.77302 7986 ft 243 kts 251°
2026-05-06 23:53 39.87789 -104.79441 8585 ft 251 kts 258°
2026-05-06 23:53 39.87399 -104.81702 9340 ft 254 kts 259°
2026-05-06 23:53 39.87029 -104.83970 9900 ft 258 kts 260°
2026-05-06 23:54 39.86664 -104.86226 10045 ft 260 kts 260°
2026-05-06 23:54 39.86285 -104.88557 10621 ft 267 kts 260°
2026-05-06 23:54 39.85883 -104.91014 10955 ft 289 kts 260°
2026-05-06 23:54 39.85440 -104.93705 11166 ft 312 kts 259°
2026-05-06 23:55 39.84964 -104.96558 11333 ft 334 kts 259°
2026-05-06 23:55 39.84453 -104.99562 11845 ft 343 kts 258°
2026-05-06 23:55 39.83743 -105.02518 12532 ft 347 kts 253°
2026-05-06 23:55 39.82946 -105.05497 12917 ft 348 kts 253°
2026-05-06 23:56 39.82125 -105.08459 13007 ft 348 kts 253°
2026-05-06 23:56 39.81305 -105.11372 13021 ft 348 kts 252°
2026-05-06 23:56 39.80469 -105.14334 13021 ft 348 kts 252°
2026-05-06 23:56 39.79630 -105.17327 13013 ft 348 kts 253°
2026-05-06 23:57 39.78830 -105.20288 13011 ft 347 kts 255°
2026-05-06 23:57 39.78107 -105.23278 13008 ft 347 kts 256°
2026-05-06 23:57 39.77426 -105.26312 13428 ft 351 kts 257°
2026-05-06 23:57 39.76760 -105.29364 13873 ft 351 kts 257°
2026-05-06 23:58 39.76103 -105.32415 14298 ft 352 kts 258°
2026-05-06 23:58 39.75537 -105.35512 14894 ft 355 kts 261°
2026-05-06 23:58 39.75045 -105.38686 15421 ft 360 kts 263°
2026-05-06 23:58 39.74739 -105.40814 15767 ft 363 kts 263°
2026-05-06 23:59 39.74281 -105.44068 16278 ft 369 kts 263°
2026-05-06 23:59 39.73812 -105.47371 16840 ft 375 kts 263°
2026-05-06 23:59 39.73320 -105.50726 17374 ft 381 kts 263°
2026-05-06 23:59 39.72810 -105.54130 17921 ft 387 kts 263°
2026-05-07 00:00 39.72281 -105.57586 18447 ft 393 kts 263°
2026-05-07 00:00 39.71735 -105.61091 18910 ft 398 kts 264°
2026-05-07 00:00 39.71176 -105.64640 19325 ft 403 kts 264°
2026-05-07 00:00 39.70611 -105.68236 19847 ft 409 kts 265°
2026-05-07 00:01 39.70041 -105.71880 20352 ft 414 kts 264°
2026-05-07 00:01 39.69467 -105.75555 20790 ft 418 kts 265°
2026-05-07 00:01 39.68885 -105.79278 21321 ft 422 kts 265°
2026-05-07 00:01 39.68298 -105.83029 21835 ft 426 kts 265°
2026-05-07 00:02 39.67707 -105.86817 22315 ft 430 kts 265°
2026-05-07 00:02 39.67108 -105.90640 22776 ft 434 kts 265°
2026-05-07 00:02 39.66503 -105.94493 23211 ft 438 kts 265°
2026-05-07 00:02 39.65890 -105.98377 23667 ft 442 kts 265°
2026-05-07 00:03 39.65271 -106.02292 23975 ft 444 kts 265°
2026-05-07 00:03 39.64645 -106.06228 24327 ft 446 kts 265°
2026-05-07 00:03 39.64017 -106.10174 24713 ft 448 kts 265°
2026-05-07 00:03 39.63385 -106.14140 25054 ft 450 kts 265°
2026-05-07 00:04 39.62750 -106.18111 25274 ft 452 kts 265°
2026-05-07 00:04 39.62107 -106.22124 25629 ft 454 kts 265°
2026-05-07 00:04 39.61463 -106.26139 26016 ft 456 kts 265°
2026-05-07 00:04 39.60813 -106.30178 26359 ft 459 kts 265°
2026-05-07 00:05 39.60159 -106.34240 26706 ft 461 kts 265°
2026-05-07 00:05 39.59503 -106.38312 27016 ft 463 kts 265°
2026-05-07 00:05 39.58848 -106.42365 27341 ft 466 kts 265°
2026-05-07 00:05 39.58181 -106.46483 27680 ft 469 kts 265°
2026-05-07 00:06 39.57507 -106.50626 28035 ft 471 kts 265°
2026-05-07 00:06 39.56829 -106.54793 28378 ft 473 kts 265°
2026-05-07 00:06 39.56148 -106.58951 28711 ft 476 kts 265°
2026-05-07 00:06 39.55454 -106.63143 29198 ft 475 kts 265°
2026-05-07 00:07 39.54668 -106.67302 29702 ft 479 kts 259°
2026-05-07 00:07 39.53485 -106.71365 30098 ft 483 kts 255°
2026-05-07 00:07 39.52222 -106.75398 30537 ft 482 kts 255°
2026-05-07 00:07 39.50960 -106.79407 30924 ft 480 kts 255°
2026-05-07 00:08 39.49698 -106.83407 31251 ft 480 kts 255°
2026-05-07 00:08 39.48434 -106.87404 31623 ft 479 kts 255°
2026-05-07 00:08 39.47173 -106.91386 32132 ft 478 kts 255°
2026-05-07 00:08 39.45911 -106.95368 32531 ft 477 kts 255°
2026-05-07 00:09 39.44655 -106.99336 32906 ft 476 kts 255°
2026-05-07 00:09 39.43402 -107.03305 33329 ft 475 kts 255°
2026-05-07 00:09 39.42156 -107.07255 33713 ft 474 kts 255°
2026-05-07 00:09 39.40908 -107.11205 34024 ft 474 kts 255°
2026-05-07 00:10 39.38391 -107.19124 34070 ft 478 kts 255°
2026-05-07 00:10 39.35690 -107.27014 34060 ft 482 kts 251°
2026-05-07 00:11 39.32748 -107.34798 34055 ft 483 kts 250°
2026-05-07 00:11 39.29768 -107.42562 34050 ft 482 kts 251°
2026-05-07 00:12 39.26849 -107.50336 34070 ft 481 kts 251°
2026-05-07 00:12 39.23961 -107.58125 34071 ft 481 kts 251°
2026-05-07 00:13 39.21060 -107.65913 34093 ft 482 kts 251°
2026-05-07 00:13 39.18141 -107.73683 34090 ft 482 kts 251°
2026-05-07 00:14 39.15212 -107.81449 34076 ft 482 kts 251°
2026-05-07 00:14 39.12280 -107.89204 34084 ft 482 kts 251°
2026-05-07 00:15 39.09367 -107.96905 34101 ft 482 kts 251°
2026-05-07 00:15 39.06433 -108.04653 34108 ft 481 kts 251°
2026-05-07 00:16 39.03495 -108.12389 34101 ft 482 kts 250°
2026-05-07 00:16 39.00538 -108.20126 34102 ft 482 kts 250°
2026-05-07 00:17 38.97580 -108.27851 34104 ft 482 kts 250°
2026-05-07 00:17 38.94616 -108.35583 34114 ft 482 kts 250°
2026-05-07 00:18 38.91650 -108.43316 34095 ft 482 kts 250°
2026-05-07 00:18 38.88680 -108.51040 34097 ft 483 kts 250°
2026-05-07 00:19 38.85694 -108.58760 34099 ft 483 kts 250°
2026-05-07 00:19 38.82701 -108.66469 34092 ft 483 kts 250°
2026-05-07 00:20 38.79704 -108.74173 34094 ft 483 kts 250°
2026-05-07 00:20 38.76713 -108.81867 34078 ft 482 kts 250°
2026-05-07 00:21 38.73714 -108.89562 34100 ft 482 kts 250°
2026-05-07 00:21 38.70717 -108.97236 34103 ft 482 kts 250°
2026-05-07 00:22 38.67710 -109.04903 34122 ft 482 kts 249°
2026-05-07 00:22 38.64695 -109.12576 34073 ft 482 kts 249°
2026-05-07 00:23 38.61683 -109.20224 34095 ft 482 kts 249°
2026-05-07 00:23 38.58662 -109.27872 34099 ft 482 kts 249°
2026-05-07 00:24 38.55637 -109.35511 34103 ft 482 kts 249°
2026-05-07 00:24 38.52602 -109.43136 34104 ft 481 kts 249°
2026-05-07 00:25 38.49564 -109.50757 34089 ft 482 kts 249°
2026-05-07 00:25 38.46530 -109.58365 34087 ft 481 kts 249°
2026-05-07 00:26 38.43479 -109.65984 34088 ft 482 kts 249°
2026-05-07 00:26 38.40429 -109.73584 34080 ft 482 kts 249°
2026-05-07 00:27 38.37373 -109.81188 34044 ft 482 kts 249°
2026-05-07 00:27 38.34320 -109.88799 34053 ft 482 kts 248°
2026-05-07 00:28 38.31250 -109.96404 34048 ft 483 kts 248°
2026-05-07 00:28 38.28170 -110.04004 34054 ft 483 kts 249°
2026-05-07 00:29 38.25333 -110.11720 34043 ft 480 kts 252°
2026-05-07 00:30 38.20130 -110.27334 34038 ft 480 kts 252°
2026-05-07 00:30 38.17434 -110.35106 34034 ft 481 kts 251°
2026-05-07 00:31 38.14698 -110.42854 34035 ft 480 kts 251°
2026-05-07 00:31 38.11972 -110.50608 34006 ft 480 kts 251°
2026-05-07 00:32 38.09259 -110.58358 34009 ft 481 kts 251°
2026-05-07 00:32 38.06534 -110.66113 34006 ft 481 kts 251°
2026-05-07 00:33 38.03797 -110.73864 34010 ft 481 kts 251°
2026-05-07 00:33 38.01054 -110.81613 33985 ft 482 kts 251°
2026-05-07 00:34 37.98309 -110.89356 33998 ft 481 kts 251°
2026-05-07 00:34 37.95562 -110.97090 34003 ft 481 kts 251°
2026-05-07 00:35 37.92811 -111.04806 33998 ft 481 kts 251°
2026-05-07 00:35 37.90050 -111.12528 33992 ft 481 kts 251°
2026-05-07 00:36 37.87290 -111.20216 33975 ft 481 kts 251°
2026-05-07 00:36 37.84517 -111.27934 33983 ft 480 kts 251°
2026-05-07 00:37 37.81753 -111.35630 33981 ft 481 kts 250°
2026-05-07 00:37 37.78980 -111.43326 33977 ft 481 kts 250°
2026-05-07 00:38 37.76189 -111.51029 33950 ft 481 kts 250°
2026-05-07 00:38 37.74795 -111.54864 33689 ft 481 kts 250°
2026-05-07 00:38 37.73400 -111.58695 33423 ft 482 kts 250°
2026-05-07 00:39 37.71991 -111.62558 33153 ft 483 kts 250°
2026-05-07 00:39 37.70586 -111.66407 32879 ft 484 kts 250°
2026-05-07 00:39 37.69179 -111.70267 32632 ft 484 kts 250°
2026-05-07 00:39 37.67767 -111.74139 32398 ft 485 kts 250°
2026-05-07 00:40 37.66358 -111.78001 32164 ft 485 kts 250°
2026-05-07 00:40 37.64946 -111.81865 32005 ft 485 kts 250°
2026-05-07 00:40 37.62115 -111.89601 32103 ft 486 kts 250°
2026-05-07 00:41 37.59271 -111.97335 32147 ft 486 kts 250°
2026-05-07 00:41 37.56424 -112.05066 32161 ft 486 kts 250°
2026-05-07 00:42 37.53551 -112.12776 32153 ft 488 kts 246°
2026-05-07 00:42 37.50546 -112.18825 32118 ft 491 kts 240°
2026-05-07 00:43 37.46814 -112.26016 32074 ft 491 kts 241°
2026-05-07 00:43 37.42481 -112.34386 32023 ft 491 kts 241°
2026-05-07 00:44 37.38759 -112.41570 31986 ft 491 kts 240°
2026-05-07 00:44 37.35621 -112.47596 31981 ft 492 kts 240°
2026-05-07 00:45 37.31863 -112.54796 31992 ft 493 kts 240°
2026-05-07 00:45 37.28105 -112.61995 31992 ft 493 kts 240°
2026-05-07 00:46 37.24333 -112.69185 31990 ft 493 kts 240°
2026-05-07 00:46 37.20561 -112.76361 32009 ft 493 kts 240°
2026-05-07 00:47 37.16784 -112.83546 32053 ft 493 kts 240°
2026-05-07 00:47 37.12999 -112.90719 32086 ft 493 kts 240°
2026-05-07 00:48 37.09204 -112.97882 32120 ft 493 kts 240°
2026-05-07 00:48 37.05411 -113.05046 32138 ft 493 kts 239°
2026-05-07 00:49 37.01613 -113.12203 32120 ft 493 kts 239°
2026-05-07 00:49 36.97813 -113.19336 32110 ft 493 kts 239°
2026-05-07 00:50 36.94009 -113.26471 32076 ft 493 kts 239°
2026-05-07 00:50 36.90208 -113.33595 32035 ft 493 kts 239°
2026-05-07 00:51 36.86397 -113.40713 31987 ft 493 kts 239°
2026-05-07 00:51 36.84486 -113.44273 31712 ft 493 kts 239°
2026-05-07 00:51 36.82588 -113.47806 30648 ft 487 kts 239°
2026-05-07 00:52 36.80715 -113.51284 29557 ft 480 kts 239°
2026-05-07 00:52 36.78868 -113.54714 28489 ft 471 kts 239°
2026-05-07 00:52 36.77052 -113.58092 27426 ft 468 kts 239°
2026-05-07 00:52 36.75250 -113.61451 26466 ft 462 kts 239°
2026-05-07 00:53 36.73469 -113.64774 25865 ft 460 kts 239°
2026-05-07 00:53 36.71694 -113.68073 25133 ft 456 kts 238°
2026-05-07 00:53 36.69937 -113.71337 24426 ft 451 kts 238°
2026-05-07 00:53 36.68198 -113.74566 23732 ft 446 kts 238°
2026-05-07 00:54 36.66498 -113.77719 22968 ft 442 kts 238°
2026-05-07 00:54 36.64794 -113.80876 22300 ft 437 kts 238°
2026-05-07 00:54 36.63107 -113.84003 21623 ft 433 kts 238°
2026-05-07 00:54 36.61435 -113.87097 20956 ft 428 kts 238°
2026-05-07 00:55 36.59780 -113.90154 20290 ft 424 kts 238°
2026-05-07 00:55 36.58117 -113.93166 19655 ft 420 kts 236°
2026-05-07 00:55 36.56389 -113.96087 19045 ft 417 kts 234°
2026-05-07 00:55 36.54626 -113.98922 18459 ft 412 kts 233°
2026-05-07 00:56 36.52851 -114.01707 17812 ft 409 kts 233°
2026-05-07 00:56 36.51086 -114.04461 17239 ft 406 kts 233°
2026-05-07 00:56 36.49343 -114.07198 16683 ft 400 kts 233°
2026-05-07 00:56 36.47674 -114.09846 16505 ft 379 kts 234°
2026-05-07 00:57 36.46097 -114.12367 16375 ft 360 kts 234°
2026-05-07 00:57 36.44596 -114.14780 16066 ft 349 kts 234°
2026-05-07 00:57 36.43134 -114.17136 15797 ft 342 kts 234°
2026-05-07 00:57 36.41688 -114.19469 15552 ft 340 kts 234°
2026-05-07 00:58 36.40244 -114.21791 15306 ft 339 kts 234°
2026-05-07 00:58 36.38803 -114.24102 15064 ft 338 kts 234°
2026-05-07 00:58 36.37356 -114.26393 14815 ft 336 kts 234°
2026-05-07 00:58 36.35908 -114.28666 14576 ft 335 kts 233°
2026-05-07 00:59 36.33026 -114.33173 13986 ft 333 kts 233°
2026-05-07 00:59 36.31581 -114.35430 13568 ft 334 kts 233°
2026-05-07 00:59 36.30149 -114.37666 13135 ft 330 kts 233°
2026-05-07 01:00 36.28722 -114.39900 12718 ft 330 kts 233°
2026-05-07 01:00 36.27302 -114.42118 12343 ft 329 kts 233°
2026-05-07 01:00 36.25887 -114.44328 11956 ft 328 kts 233°
2026-05-07 01:00 36.24473 -114.46529 11659 ft 324 kts 233°
2026-05-07 01:01 36.23057 -114.48709 11273 ft 324 kts 233°
2026-05-07 01:01 36.21649 -114.50863 10957 ft 321 kts 233°
2026-05-07 01:01 36.20251 -114.52995 10425 ft 317 kts 233°
2026-05-07 01:01 36.18873 -114.55099 9910 ft 312 kts 233°
2026-05-07 01:02 36.17518 -114.57172 9503 ft 309 kts 233°
2026-05-07 01:02 36.16170 -114.59233 9124 ft 308 kts 233°
2026-05-07 01:02 36.14838 -114.61266 8804 ft 298 kts 233°
2026-05-07 01:02 36.13573 -114.63193 8685 ft 278 kts 233°
2026-05-07 01:03 36.12387 -114.64994 8551 ft 262 kts 233°
2026-05-07 01:03 36.11257 -114.66712 8353 ft 255 kts 233°
2026-05-07 01:03 36.10143 -114.68415 8228 ft 255 kts 233°
2026-05-07 01:03 36.09030 -114.70120 8124 ft 254 kts 233°
2026-05-07 01:04 36.08004 -114.71874 8010 ft 250 kts 245°
2026-05-07 01:04 36.07420 -114.73870 7845 ft 245 kts 263°
2026-05-07 01:04 36.07319 -114.75885 7586 ft 241 kts 273°
2026-05-07 01:04 36.07327 -114.77956 7295 ft 241 kts 273°
2026-05-07 01:05 36.07334 -114.80031 6989 ft 242 kts 273°
2026-05-07 01:05 36.07339 -114.82112 6694 ft 242 kts 272°
2026-05-07 01:05 36.07343 -114.84193 6381 ft 240 kts 272°
2026-05-07 01:05 36.07346 -114.86214 6078 ft 231 kts 272°
2026-05-07 01:06 36.07350 -114.88169 5780 ft 224 kts 272°
2026-05-07 01:06 36.07353 -114.90054 5505 ft 215 kts 272°
2026-05-07 01:06 36.07355 -114.91857 5257 ft 205 kts 271°
2026-05-07 01:06 36.07357 -114.93590 4968 ft 198 kts 271°
2026-05-07 01:07 36.07359 -114.95265 4718 ft 192 kts 271°
2026-05-07 01:07 36.07361 -114.96839 4505 ft 174 kts 271°
2026-05-07 01:07 36.07362 -114.98270 4284 ft 159 kts 271°
2026-05-07 01:07 36.07363 -114.99593 4093 ft 150 kts 271°
2026-05-07 01:08 36.07364 -115.00862 3909 ft 147 kts 271°
2026-05-07 01:08 36.07365 -115.02120 3724 ft 149 kts 271°
2026-05-07 01:08 36.07365 -115.03404 3538 ft 150 kts 270°
2026-05-07 01:08 36.07366 -115.04677 3357 ft 151 kts 271°
2026-05-07 01:09 36.07366 -115.05990 3171 ft 150 kts 271°
2026-05-07 01:09 36.07366 -115.07276 2976 ft 150 kts 270°
2026-05-07 01:09 36.07366 -115.08579 2759 ft 152 kts 269°
2026-05-07 01:09 36.07364 -115.09885 2569 ft 151 kts 269°
2026-05-07 01:10 36.07365 -115.11186 2330 ft 151 kts 269°
2026-05-07 01:10 36.07366 -115.12488 2139 ft 151 kts 269°
2026-05-07 01:10 36.07370 -115.13737 2076 ft 127 kts 269°
2026-05-07 01:10 36.07366 -115.14618 2091 ft 78 kts 270°
2026-05-07 01:11 36.07368 -115.15172 2100 ft 46 kts 272°
2026-05-07 01:11 36.07433 -115.15424 2106 ft 27 kts 292°
2026-05-07 01:11 36.07523 -115.15600 2109 ft 16 kts 320°
2026-05-07 01:11 36.07553 -115.15634 2113 ft 0 kts 315°
2026-05-07 01:12 36.07558 -115.15640 2114 ft 2 kts 315°
2026-05-07 01:12 36.07570 -115.15655 2115 ft 3 kts 313°
2026-05-07 01:12 36.07582 -115.15671 2117 ft 0 kts 313°
2026-05-07 01:13 36.07596 -115.15690 2119 ft 6 kts 313°
2026-05-07 01:13 36.07642 -115.15751 2121 ft 14 kts 313°
2026-05-07 01:13 36.07750 -115.15825 2116 ft 17 kts
2026-05-07 01:13 36.07759 -115.15825 2115 ft 0 kts
2026-05-07 01:14 36.07762 -115.15825 2115 ft 3 kts
2026-05-07 01:14 36.07814 -115.15826 2112 ft 12 kts 359°
2026-05-07 01:15 36.07877 -115.15744 2106 ft 18 kts 81°
2026-05-07 01:15 36.07876 -115.15574 2102 ft 17 kts 89°
2026-05-07 01:15 36.07876 -115.15418 2100 ft 13 kts 90°
2026-05-07 01:15 36.07952 -115.15379 2098 ft 16 kts 341°
2026-05-07 01:16 36.08035 -115.15425 2098 ft 14 kts 334°
2026-05-07 01:16 36.08140 -115.15436 2098 ft 17 kts
2026-05-07 01:16 36.08182 -115.15428 2098 ft 0 kts 10°
2026-05-07 01:17 36.08185 -115.15427 2098 ft 2 kts 10°
2026-05-07 01:17 36.08213 -115.15420 2097 ft 6 kts 13°
2026-05-07 01:17 36.08244 -115.15381 2097 ft 6 kts 64°
2026-05-07 01:17 36.08249 -115.15366 2097 ft 3 kts 64°
2026-05-07 01:18 36.08254 -115.15353 2097 ft 2 kts 65°
2026-05-07 01:18 36.08257 -115.15346 2097 ft 0 kts 65°